Waarnemingen

Advertentie
Mijn weer
Woensdrecht, Nederland (6340): temperatuur & dauwpunt: 16.02.2017 11:00:00 - 22.02.2017 11:00:00 (CET)Woensdrecht, Nederland (6340): temperatuur 5cm: 16.02.2017 11:00:00 - 22.02.2017 11:00:00 (CET)Woensdrecht, Nederland (6340): windsnelheid & windstoten: 16.02.2017 11:00:00 - 22.02.2017 11:00:00 (CET)Woensdrecht, Nederland (6340): windrichting: 16.02.2017 11:00:00 - 22.02.2017 11:00:00 (CET)Woensdrecht, Nederland (6340): luchtdruk: 16.02.2017 11:00:00 - 22.02.2017 11:00:00 (CET)Woensdrecht, Nederland (6340): zicht: 16.02.2017 11:00:00 - 22.02.2017 11:00:00 (CET)
Datum & Tijd tt [°C] td [°C] tt 5cm [°C] ff [km/u] ff [kn] fx [km/u] fx [kn] dd ppp [hPa] vv [km]
22.02.2017 11:00:00 10,9 8,5 10,8 31 17 47 25 ZW 1008,1 10
22.02.2017 10:00:00 10,4 8,7 10,3 29 16 50 27 ZW 1008,4 10
22.02.2017 09:00:00 10,3 8,5 10,0 29 16 47 25 ZW 1008,3 10
22.02.2017 08:00:00 10,4 8,4 10,0 31 17 50 27 WZW 1008,3 10
22.02.2017 07:00:00 10,3 8,4 9,6 34 18 54 29 WZW 1008,0 10
22.02.2017 06:00:00 10,1 8,7 9,8 35 19 58 31 WZW 1008,0 10
22.02.2017 05:00:00 10,1 8,3 9,8 29 16 54 29 ZW 1008,3 10
22.02.2017 04:00:00 10,3 7,8 10,0 34 18 54 29 ZW 1008,7 10
22.02.2017 03:00:00 10,4 8,3 10,1 34 18 54 29 ZW 1009,7 10
22.02.2017 02:00:00 10,3 8,7 10,0 34 18 54 29 ZW 1010,2 10
22.02.2017 01:00:00 10,4 9,0 10,1 26 14 50 27 ZW 1010,8 10
22.02.2017 00:00:00 10,4 9,0 10,1 28 15 43 23 ZW 1011,1 10
21.02.2017 23:00:00 10,3 9,1 9,9 26 14 43 23 ZW 1011,8 10
21.02.2017 22:00:00 10,0 9,4 9,8 22 12 43 23 ZW 1012,5 2,7
21.02.2017 21:00:00 10,3 9,6 10,0 24 13 36 19 ZW 1013,0 6
21.02.2017 20:00:00 10,3 9,7 10,1 15 8 25 14 ZW 1013,5 3,0
21.02.2017 19:00:00 10,5 9,3 10,1 11 6 18 10 ZW 1014,4 9
21.02.2017 18:00:00 10,1 8,9 9,9 11 6 22 12 WZW 1014,8 10
21.02.2017 17:00:00 10,3 8,9 10,3 16 9 22 12 WZW 1015,1 10
21.02.2017 16:00:00 10,3 8,0 10,4 9 5 18 10 W 1015,8 10
21.02.2017 15:00:00 9,7 7,4 10,2 11 6 22 12 W 1016,2 3,9
21.02.2017 14:00:00 10,6 7,7 11,1 13 7 22 12 W 1016,9 10
21.02.2017 13:00:00 10,6 8,7 11,1 18 10 29 16 W 1017,0 10
21.02.2017 12:00:00 10,7 8,7 11,0 15 8 25 14 W 1017,0 10
21.02.2017 11:00:00 10,1 8,9 10,4 16 9 25 14 W 1017,0 10
21.02.2017 10:00:00 9,5 8,4 9,4 16 9 25 14 W 1016,6 10
21.02.2017 09:00:00 9,5 8,5 9,2 15 8 25 14 W 1016,1 10
21.02.2017 08:00:00 9,2 8,2 8,9 18 10 29 16 W 1015,6 10
21.02.2017 07:00:00 9,3 8,3 9,0 21 11 29 16 W 1015,3 10
21.02.2017 06:00:00 8,9 8,0 8,3 16 9 25 14 W 1015,1 10
21.02.2017 05:00:00 8,4 7,9 7,8 9 5 18 10 W 1015,4 10
21.02.2017 04:00:00 8,7 8,2 7,7 11 6 18 10 WZW 1015,1 9
21.02.2017 03:00:00 8,8 8,3 8,5 11 6 25 14 W 1015,8 10
21.02.2017 02:00:00 9,7 8,8 9,2 15 8 25 14 W 1015,7 9
21.02.2017 01:00:00 9,9 9,2 9,6 18 10 36 19 W 1015,7 9
21.02.2017 00:00:00 10,0 9,3 9,8 24 13 32 18 W 1015,6 10
20.02.2017 23:00:00 10,1 9,7 9,9 18 10 32 18 WZW 1015,6 4,4
20.02.2017 22:00:00 10,4 9,9 10,1 18 10 32 18 WZW 1015,6 4,7
20.02.2017 21:00:00 10,5 9,7 10,3 16 9 29 16 WZW 1015,6 9
20.02.2017 20:00:00 10,6 9,8 10,1 16 9 25 14 ZW 1015,5 10
20.02.2017 19:00:00 10,7 9,9 10,2 15 8 25 14 ZW 1015,5 10
20.02.2017 18:00:00 10,9 10,1 10,6 18 10 29 16 ZW 1015,2 9
20.02.2017 17:00:00 10,8 10,1 10,6 18 10 32 18 ZW 1015,2 6
20.02.2017 16:00:00 10,5 10,1 10,3 16 9 29 16 WZW 1015,8 3,5
20.02.2017 15:00:00 10,2 9,8 10,1 22 12 32 18 WZW 1015,9 5
20.02.2017 14:00:00 10,0 9,7 10,0 22 12 32 18 WZW 1016,4 7
20.02.2017 13:00:00 9,7 9,4 9,7 21 11 32 18 WZW 1017,2 1,8
20.02.2017 12:00:00 9,4 9,1 9,4 21 11 32 18 ZW 1017,5 2,8
20.02.2017 11:00:00 9,0 8,7 9,0 21 11 36 19 ZW 1018,0 1,8
20.02.2017 10:00:00 8,9 8,6 8,9 21 11 32 18 ZW 1018,0 3,5
20.02.2017 09:00:00 8,6 8,1 8,4 18 10 29 16 ZW 1018,1 5
20.02.2017 08:00:00 8,3 8,0 8,1 16 9 29 16 ZW 1018,4 2,0
20.02.2017 07:00:00 8,2 8,0 8,0 18 10 29 16 ZW 1018,0 1,8
20.02.2017 06:00:00 7,8 7,6 7,6 13 7 22 12 ZW 1019,0 1,9
20.02.2017 05:00:00 7,7 7,3 7,4 13 7 25 14 ZZW 1019,0 2,0
20.02.2017 04:00:00 7,5 7,0 7,4 13 7 29 16 ZZW 1019,5 3,3
20.02.2017 03:00:00 7,5 6,9 7,3 16 9 25 14 ZW 1020,0 3,8
20.02.2017 02:00:00 7,5 6,9 7,3 13 7 22 12 ZZW 1020,8 3,8
20.02.2017 01:00:00 7,8 6,6 7,4 11 6 18 10 ZW 1021,5 8
20.02.2017 00:00:00 8,0 6,4 7,7 11 6 18 10 ZW 1021,6 10
19.02.2017 23:00:00 7,9 6,1 7,4 9 5 18 10 ZW 1021,7 10
19.02.2017 22:00:00 7,7 5,9 7,1 8 4 18 10 ZW 1022,0 10
19.02.2017 21:00:00 7,6 5,9 7,2 11 6 18 10 WZW 1021,8 10
19.02.2017 20:00:00 7,4 6,0 7,0 9 5 18 10 WZW 1022,0 10
19.02.2017 19:00:00 7,6 6,1 7,3 13 7 18 10 W 1021,7 9
19.02.2017 18:00:00 7,6 6,0 7,4 13 7 22 12 WZW 1021,2 9
19.02.2017 17:00:00 7,8 6,1 7,7 16 9 25 14 W 1021,3 9
19.02.2017 16:00:00 8,1 6,0 8,2 18 10 29 16 W 1021,3 9
19.02.2017 15:00:00 8,4 6,1 8,4 21 11 29 16 W 1021,3 10
19.02.2017 14:00:00 8,3 6,3 8,2 21 11 29 16 WZW 1021,5 8
19.02.2017 13:00:00 7,7 5,8 7,7 15 8 22 12 WZW 1021,7 7
19.02.2017 12:00:00 6,8 5,1 6,6 9 5 22 12 ZW 1022,2 6
19.02.2017 11:00:00 5,7 4,7 5,8 13 7 22 12 ZW 1022,1 4,6
19.02.2017 10:00:00 4,7 4,4 4,7 13 7 25 14 WZW 1022,3 2,0
19.02.2017 09:00:00 4,1 4,0 4,1 15 8 25 14 ZW 1022,2 1,1
19.02.2017 08:00:00 3,4 3,3 3,3 15 8 29 16 ZW 1022,1 0,7
19.02.2017 07:00:00 2,5 2,5 2,3 21 11 29 16 ZW 1022,0 0,4
19.02.2017 06:00:00 1,5 1,2 1,2 18 10 25 14 ZW 1022,8 1,1
19.02.2017 05:00:00 2,4 1,3 1,3 9 5 18 10 ZW 1022,9 4,7
19.02.2017 04:00:00 2,8 1,2 1,8 11 6 22 12 ZZW 1023,1 7
19.02.2017 03:00:00 3,5 1,5 2,5 13 7 22 12 ZW 1023,4 7
19.02.2017 02:00:00 4,0 2,1 2,6 11 6 18 10 ZW 1024,1 6
19.02.2017 01:00:00 4,0 2,8 2,3 9 5 18 10 ZW 1024,4 4,7
19.02.2017 00:00:00 4,2 3,2 2,4 9 5 14 8 ZZW 1024,7 4,6
18.02.2017 23:00:00 2,9 1,7 -1,1 5 3 11 6 ZZW 1024,9 10
18.02.2017 22:00:00 1,9 0,8 -1,9 5 3 14 8 ZZW 1024,9 10
18.02.2017 21:00:00 5,1 2,4 0,1 8 4 14 8 ZZW 1024,9 10
18.02.2017 20:00:00 2,0 1,0 -1,4 5 3 7 4 Z 1025,3 8
18.02.2017 19:00:00 4,0 3,2 0,0 2 1 11 6 - 1025,4 10
18.02.2017 18:00:00 7,2 4,6 5,5 4 2 11 6 - 1025,4 10
18.02.2017 17:00:00 9,4 3,6 8,9 11 6 22 12 WZW 1025,5 10
18.02.2017 16:00:00 10,9 4,5 11,6 7 4 14 8 W 1025,7 13
18.02.2017 15:00:00 10,2 6,2 11,8 8 4 14 8 W 1026,1 6
18.02.2017 14:00:00 9,1 6,8 10,7 9 5 11 6 WZW 1026,5 3,8
18.02.2017 13:00:00 7,5 6,7 8,8 9 5 14 8 WZW 1027,2 0,7
18.02.2017 12:00:00 7,8 6,9 8,6 11 6 14 8 WZW 1027,7 1,5
18.02.2017 11:00:00 7,8 7,2 8,1 5 3 11 6 Z 1027,5 2,4
18.02.2017 10:00:00 5,4 5,3 5,7 4 2 11 6 - 1027,3 0,2
18.02.2017 09:00:00 4,1 4,0 4,0 4 2 11 6 - 1027,4 0,2
18.02.2017 08:00:00 3,9 3,7 3,7 2 1 7 4 OZO 1027,4 0,5
18.02.2017 07:00:00 3,9 3,8 3,9 4 2 7 4 O 1027,3 1,7
18.02.2017 06:00:00 3,5 3,5 3,6 2 1 4 2 - 1027,5 0,3
18.02.2017 05:00:00 3,8 3,7 3,8 2 1 7 4 Z 1027,3 0,3
18.02.2017 04:00:00 4,2 4,2 4,2 4 2 7 4 - 1027,5 0,3
18.02.2017 03:00:00 4,5 4,4 4,4 2 1 4 2 ZO 1028,1 0,5
18.02.2017 02:00:00 4,6 4,6 4,5 2 1 4 2 W 1028,1 0,3
18.02.2017 01:00:00 4,9 4,8 4,7 2 1 4 2 - 1028,4 0,2
18.02.2017 00:00:00 3,9 3,8 2,3 2 1 7 4 W 1028,4 0,4
17.02.2017 23:00:00 4,2 4,1 2,7 5 3 7 4 W 1028,4 2,3
17.02.2017 22:00:00 5,0 4,9 3,7 4 2 7 4 WZW 1028,4 2,6
17.02.2017 21:00:00 5,7 5,3 5,3 5 3 11 6 W 1028,4 4,1
17.02.2017 20:00:00 5,8 5,3 5,6 9 5 14 8 W 1028,2 5
17.02.2017 19:00:00 6,3 5,5 6,1 9 5 14 8 W 1028,0 7
17.02.2017 18:00:00 6,4 5,4 5,9 11 6 14 8 W 1027,4 10
17.02.2017 17:00:00 7,1 5,8 6,6 13 7 18 10 W 1027,4 10
17.02.2017 16:00:00 8,0 6,3 8,4 13 7 22 12 W 1027,2 10
17.02.2017 15:00:00 8,4 6,2 8,9 11 6 22 12 NNW 1027,2 10
17.02.2017 14:00:00 8,4 6,4 8,4 15 8 22 12 W 1027,1 10
17.02.2017 13:00:00 8,2 6,6 9,0 15 8 22 12 W 1027,1 10
17.02.2017 12:00:00 7,4 6,1 8,1 15 8 22 12 W 1027,0 10
17.02.2017 11:00:00 7,2 5,7 7,2 15 8 25 14 WNW 1026,8 10
17.02.2017 10:00:00 6,9 5,9 6,8 13 7 18 10 W 1026,5 10
17.02.2017 09:00:00 6,3 5,7 6,2 15 8 22 12 WZW 1026,2 9
17.02.2017 08:00:00 6,2 5,5 6,1 13 7 22 12 WZW 1025,9 6
17.02.2017 07:00:00 6,3 5,5 6,1 13 7 22 12 WZW 1025,7 9
17.02.2017 06:00:00 6,3 5,2 6,0 18 10 25 14 WZW 1025,8 10
17.02.2017 05:00:00 6,1 5,1 5,7 16 9 22 12 WZW 1025,9 8
17.02.2017 04:00:00 6,0 5,1 5,3 16 9 25 14 WZW 1026,3 6
17.02.2017 03:00:00 6,0 5,2 5,2 16 9 25 14 WZW 1026,6 6
17.02.2017 02:00:00 5,8 5,2 4,9 11 6 18 10 ZW 1026,8 6
17.02.2017 01:00:00 5,3 4,8 3,7 9 5 22 12 ZW 1027,2 5
17.02.2017 00:00:00 5,0 4,6 3,1 11 6 18 10 WZW 1027,6 5
16.02.2017 23:00:00 5,0 4,3 3,8 11 6 14 8 WZW 1027,9 7
16.02.2017 22:00:00 5,7 4,9 5,0 9 5 14 8 ZW 1028,1 8
16.02.2017 21:00:00 6,2 5,4 4,7 8 4 14 8 WZW 1028,2 9
16.02.2017 20:00:00 5,9 5,2 3,9 5 3 7 4 W 1028,4 10
16.02.2017 19:00:00 6,1 5,0 4,1 5 3 11 6 WZW 1028,4 10
16.02.2017 18:00:00 7,1 5,4 6,1 11 6 18 10 W 1028,3 10
16.02.2017 17:00:00 9,2 6,5 9,0 11 6 25 14 W 1028,5 10
16.02.2017 16:00:00 9,9 6,6 9,7 21 11 29 16 W 1028,5 10
16.02.2017 15:00:00 9,3 7,2 9,5 13 7 22 12 ZW 1028,9 8
16.02.2017 14:00:00 9,4 7,2 9,3 13 7 29 16 ZW 1029,5 7
16.02.2017 13:00:00 7,8 6,8 8,2 16 9 22 12 WZW 1030,0 4,3
16.02.2017 12:00:00 7,3 6,6 7,1 16 9 32 18 ZW 1030,6 3,8
16.02.2017 11:00:00 6,8 6,2 6,9 18 10 25 14 WZW 1030,8 3,9

tt = temperatuur
td = dauwpunt
tt 5cm = temperatuur 5cm
ff = windsnelheid
fx = windstoten
dd = windrichting
ppp = luchtdruk
vv = zicht

Weerstations in de omgeving